INFLATESAIL

Last updated on Sept. 4, 2017, 12:19 a.m. UTC

1 42770U 17036F   17245.93730135  .99999999  00000-0  73960-1 0  9995
2 42770  97.4262 306.2162 0014869 278.7167  80.9844 16.07641391 10932

Satellite is not in orbit.